Regional Weather Roundup
Issued by NWS Cleveland, OH

Home | Current Version | Previous Version | Graphics & Text | Print | Product List | Glossary On
Versions: 1 2 3 4 5 6 7 8 9 10 11 12 13 14 15 16 17 18 19 20 21 22 23 24 25 26 27 28 29 30 31 32 33 34 35 36 37 38 39 40 41 42 43 44 45 46 47 48 49 50
000
ASUS41 KCLE 302002
RWRCLE
OHIO REGIONAL WEATHER ROUNDUP
NATIONAL WEATHER SERVICE CLEVELAND, OH
400 PM EDT SAT APR 30 2016

NOTE: "FAIR" INDICATES FEW OR NO CLOUDS BELOW 12,000 FEET WITH NO
SIGNIFICANT WEATHER AND/OR OBSTRUCTIONS TO VISIBILITY.

OHZ001>008-015>018-024>027-034-035-043-044-302100-
   NORTHWEST OHIO

CITY           SKY/WX    TMP DP  RH WIND       PRES   REMARKS
DEFIANCE       LGT RAIN  50  45  83 E13       30.03F
FINDLAY        LGT RAIN  52  45  77 E9        30.03F
TOLEDO EXPRESS LGT RAIN  46  43  89 E9        30.05F FOG
TOLEDO EXEC    LGT RAIN  47  42  83 E9        30.07F
LIMA           LGT RAIN  50  48  93 E12       30.00F FOG
$$

OHZ009>014-019>023-028>033-038-089-302100-
   NORTHEAST OHIO

CITY           SKY/WX    TMP DP  RH WIND       PRES   REMARKS
CLE-HOPKINS    LGT RAIN  51  45  79 NE8       30.10F
CLE-LAKEFRONT  CLOUDY    50  45  83 NE14      30.08F
CUY CO. ARPT   CLOUDY    57  46  67 NW8       30.09S
LORAIN-ELYRIA  LGT RAIN  50  44  80 NE9       30.08F
ASHTABULA      PTSUNNY   60  46  59 SE8       30.09F
AKRON-CANTON   CLOUDY    58  47  66 CALM      30.06F
WOOSTER        LGT RAIN  54  48  80 SE3       30.07F
MANSFIELD      LGT RAIN  49  48  97 E7        30.06F FOG
YOUNGSTOWN     CLOUDY    62  46  55 VRB3      30.07F
$$

OHZ042-051>053-060>062-070>072-077>081-302100-
  SOUTHWEST OHIO

CITY           SKY/WX    TMP DP  RH WIND       PRES   REMARKS
CINC-COVINGTON LGT RAIN  58  57  97 SE10      29.92F
CINC-LUNKEN    LGT RAIN  58  57  97 VRB6      29.94F
HAMILTON       LGT RAIN  58  56  93 SE8       29.94F
DAYTON         LGT RAIN  54  53  97 E14       29.94F FOG
WRIGHT-PAT AFB LGT RAIN  55  55 100 E10       29.94F FOG
DAYTON GENERAL LGT RAIN  55  52  89 SE15      29.92F FOG
WILMINGTON     LGT RAIN  54  53  97 SE15G22   29.96F FOG
$$

OHZ036-037-039>041-045>050-054>059-063>069-073>076-082>088-302100-
  CENTRAL AND SOUTHEAST OHIO

CITY           SKY/WX    TMP DP  RH WIND       PRES   REMARKS
COLUMBUS       LGT RAIN  54  52  93 E6        30.01F FOG
OSU AIRPORT    LGT RAIN  54  52  93 E7        30.01F FOG
BOLTON FIELD   LGT RAIN  54  54 100 E6        30.02F FOG
RICKENBACK AFB LGT RAIN  54  53  95 E7        30.01F
NEWARK         LGT RAIN  56  51  84 VRB6      30.03F
MARION         LGT RAIN  52  49  89 E9        30.03F FOG
LANCASTER      LGT RAIN  57  53  86 E7        30.02F
ZANESVILLE     LGT RAIN  60  51  72 NE3       30.05F
NEW PHILLY     CLOUDY    59  50  72 CALM      30.06F
$$




USA.gov is the U.S. government's official web portal to all federal, state and local government web resources and services.